• Join FlightAware (Why Join?)
  • Login
  • US Flag 
04:36AM EDT


 

Airport Tracker/Info


-or-


 

Live Flight TrackerFlight Track Log ✈ N56359 ✈ 02-Jul-2013 ✈ KSTC - KCOQ

Flight Track Log - Related Links

Times and Time Zones

All times are in EDT time to prevent confusion due to time zone crossing. See the N56359 flight status page for this flight to view local times or setup timezone preferences in your user account.

Time Position Orientation Groundspeed Altitude Reporting Facility
EDT Latitude Longitude Course Direction KTS MPH feet Rate Location/Type
02:50PM 45.5928 -94.0144 43° Northeast 140 161 3,000  Level Minneapolis Center
02:51PM 45.6158 -93.9717 52° Northeast 112 129 4,200 960 Climbing Minneapolis Center
02:52PM 45.6356 -93.9408 48° Northeast 108 124 5,100 840 Climbing Minneapolis Center
02:53PM 45.7161 -93.8230 43° Northeast  Level FlightAware Approximate
02:53PM 45.6544 -93.9142 45° Northeast 100 115 6,000  Level Minneapolis Center
02:54PM 45.7457 -93.7837 43° Northeast  Level FlightAware Approximate
02:54PM 45.6736 -93.8886 43° Northeast 95 109 6,900  Level Minneapolis Center
02:55PM 45.7754 -93.7445 43° Northeast  Level FlightAware Approximate
02:55PM 45.6950 -93.8586 44° Northeast 105 121 7,000  Level Minneapolis Center
02:56PM 45.7219 -93.8208 44° Northeast 130 150 7,000  Level Minneapolis Center
02:57PM 45.7569 -93.7736 43° Northeast 140 161 7,000  Level Minneapolis Center
02:58PM 45.7853 -93.7344 44° Northeast 143 165 7,000  Level Minneapolis Center
02:59PM 45.8142 -93.6958 43° Northeast 143 165 7,000  Level Minneapolis Center
03:00PM 45.8414 -93.6547 46° Northeast 144 166 7,000  Level Minneapolis Center
03:02PM 45.8703 -93.6169 42° Northeast 143 165 7,000  Level Minneapolis Center
03:03PM 45.9067 -93.5711 41° Northeast 145 167 7,000  Level Minneapolis Center
03:04PM 45.9358 -93.5325 43° Northeast 144 166 7,000  Level Minneapolis Center
03:05PM 45.9647 -93.4908 45° Northeast 145 167 7,000  Level Minneapolis Center
03:06PM 45.9947 -93.4544 40° Northeast 144 166 7,000  Level Minneapolis Center
03:07PM 46.0261 -93.4158 40° Northeast 146 168 7,000  Level Minneapolis Center
03:08PM 46.0569 -93.3783 40° Northeast 145 167 7,000  Level Minneapolis Center
03:09PM 46.0944 -93.3353 39° Northeast 146 168 7,000  Level Minneapolis Center
03:10PM 46.1253 -93.2981 40° Northeast 146 168 7,000  Level Minneapolis Center
03:11PM 46.1553 -93.2592 42° Northeast 145 167 7,000  Level Minneapolis Center
03:12PM 46.1864 -93.2225 39° Northeast 146 168 7,000  Level Minneapolis Center
03:13PM 46.2181 -93.1783 44° Northeast 147 169 7,000  Level Minneapolis Center
03:14PM 46.2494 -93.1381 42° Northeast 151 174 7,000  Level Minneapolis Center
03:15PM 46.2797 -93.0992 42° Northeast 148 170 7,000  Level Minneapolis Center
03:16PM 46.3094 -93.0556 45° Northeast 149 171 7,000  Level Minneapolis Center
03:17PM 46.3381 -93.0111 47° Northeast 151 174 7,000 -180 Level Minneapolis Center
03:18PM 46.3753 -92.9589 44° Northeast 154 177 6,700 -540 Descending Minneapolis Center
03:19PM 46.4078 -92.9097 46° Northeast 161 185 6,000 -600 Descending Minneapolis Center
03:20PM 46.4411 -92.8617 45° Northeast 166 191 5,500 -480 Descending Minneapolis Center
03:21PM 46.4672 -92.8236 45° Northeast 167 192 5,100 -420 Descending Minneapolis Center
03:22PM 46.5067 -92.7694 43° Northeast 166 191 4,600 -540 Descending Minneapolis Center
03:23PM 46.5450 -92.7147 44° Northeast 164 189 4,000 -480 Descending Minneapolis Center
03:24PM 46.5839 -92.6633 42° Northeast 162 186 3,700 -540 Descending Minneapolis Center
03:25PM 46.6167 -92.6228 40° Northeast 159 183 3,000 -660 Descending Minneapolis Center
03:27PM 46.6517 -92.5844 37° Northeast 164 189 2,400 -420 Descending Minneapolis Center
03:28PM 46.6911 -92.5761 North 157 181 2,200 -300 Descending Minneapolis Center
03:29PM 46.6922 -92.5406 87° East 115 132 1,800 -300 Descending Minneapolis Center
03:30PM 46.7008 -92.5075 69° East 109 125 1,700 -120 Descending Minneapolis Center